Regional Weather Roundup
Issued by NWS

Home | Current Version | Previous Version | Graphics & Text | Print | Product List | Glossary On
Versions: 1 2 3 4 5 6 7 8 9 10 11 12 13 14 15 16 17 18 19 20 21 22 23 24 25 26 27 28 29 30 31 32 33 34 35 36 37 38 39 40 41 42 43 44 45 46 47 48 49 50
000
ASUS43 KMKX 311500
RWRWI

WISCONSIN REGIONAL WEATHER ROUNDUP
NATIONAL WEATHER SERVICE MILWAUKEE/SULLIVAN WI
1000 AM CDT FRI OCT 31 2014

NOTE: "FAIR" INDICATES FEW OR NO CLOUDS BELOW 12,000 FEET WITH NO
SIGNIFICANT WEATHER AND/OR OBSTRUCTIONS TO VISIBILITY.

WIZ001-002-006>008-014>016-023>028-311600-
NORTHWEST WISCONSIN

CITY           SKY/WX    TMP DP  RH WIND       PRES   REMARKS
SUPERIOR ARPT  SUNNY     30  19  62 NE10G16   30.57S WCI  21
ASHLAND        CLOUDY    32  22  66 N17       30.52R WCI  21
HAYWARD        CLOUDY    30  19  63 N8G22     30.50R WCI  22
SIREN          CLOUDY    30  18  60 N8G17     30.54S WCI  22
CUMBERLAND     PTSUNNY   30  18  59 N13G23    30.50R WCI  20
RICE LAKE      SUNNY     31  19  62 N14G20    30.50R WCI  20
CHETEK         SUNNY     31  22  69 N14G22    30.49R WCI  21
LADYSMITH      SUNNY     31  24  74 N14G23    30.45R WCI  21
EAU CLAIRE     SUNNY     33  20  58 N13G24    30.48R WCI  24
MENOMONIE      SUNNY     32  19  59 NW15G26   30.50R WCI  22
NEW RICHMOND   SUNNY     31  19  61 N9        30.52S WCI  23
OSCEOLA        MOSUNNY   31  19  61 N13G20    30.56S WCI  21
$$

WIZ003>005-009-010-017-018-311600-
NORTH CENTRAL WISCONSIN

CITY           SKY/WX    TMP DP  RH WIND       PRES   REMARKS
MANITOWISH WTR PTSUNNY   27  24  88 N9        30.39R WCI  17
ARBOR VITAE    FLURRIES  29  25  84 N12G21    30.38R WCI  20
WOODRUFF       FLURRIES  29  25  84 N12G21    30.38R WCI  20
RHINELANDER    CLOUDY    28  21  75 N13G22    30.37R WCI  17
EAGLE RIVER    FLURRIES  28  21  76 N16G22    30.36R WCI  16
LAND O LAKES   LGT SNOW  28  24  86 N14G22    30.37R WCI  17
PHILLIPS       FLURRIES  28  24  84 N13       30.40R WCI  18
TOMAHAWK       CLOUDY    30  23  74 N14G21    30.39R WCI  19
MEDFORD        CLOUDY    30  22  72 N12G30    30.37R WCI  20
MERRILL        PTSUNNY   30  22  72 N16G25    30.37R WCI  19
$$

WIZ029-030-035-036-043>047-311600-
CENTRAL WISCONSIN

CITY           SKY/WX    TMP DP  RH WIND       PRES   REMARKS
WAUSAU         PTSUNNY   30  20  66 N9G21     30.35R WCI  22
MOSINEE        CLOUDY    30  23  74 N22G28    30.36R WCI  17
MARSHFIELD     MOSUNNY   32  21  64 N17G24    30.37R WCI  21
STEVENS POINT  CLOUDY    30  21  67 N15G29    30.34R WCI  19
WAUPACA        CLOUDY    34  24  65 N16G25    30.31R WCI  24
WAUTOMA        NOT AVBL
WISC RAPIDS    MOSUNNY   33  21  61 N23G35    30.37R WCI  21
CAMP DOUGLAS   NOT AVBL
$$

WIZ011>013-019>022-031-037>040-048>050-311600-
NORTHEAST WISCONSIN

CITY           SKY/WX    TMP DP  RH WIND       PRES   REMARKS
ANTIGO         PTSUNNY   29  21  73 N26G36    30.32R WCI  14
SHAWANO        CLOUDY    35  23  62 N16G28    30.31R WCI  25
OCONTO         CLOUDY    34  24  65 N14G24    30.28R WCI  25
STURGEON BAY   CLOUDY    34  27  75 N24G35    30.24R WCI  21
GREEN BAY      CLOUDY    35  22  58 N29G38    30.28R WCI  22
MANITOWOC      NOT AVBL
APPLETON       PTSUNNY   34  19  55 N30G40    30.27R WCI  20
CLINTONVILLE   CLOUDY    34  21  60 N24G32    30.30R WCI  21
OSHKOSH        CLOUDY    35  21  56 N32G43    30.27R WCI  21
$$

WIZ032>034-041-042-053>061-311600-
SOUTHWEST WISCONSIN

CITY           SKY/WX    TMP DP  RH WIND       PRES   REMARKS
LA CROSSE      PTSUNNY   35  21  56 N21       30.45R WCI  24
SPARTA         SUNNY     34  21  60 N12G23    30.41R WCI  25
VIROQUA        CLOUDY    32  21  64 N17G25    30.37R WCI  21
BOSCOBEL       PTSUNNY   36  20  52 N15G28    30.39R WCI  27
PRAIRIE DU CHI MOSUNNY   34  19  53 NW16G24   30.39S WCI  24
PLATTEVILLE    PTSUNNY   35  22  58 N21       30.33R WCI  24
$$

WIZ056-057-062-063-064-067-068-311600-
SOUTH CENTRAL WISCONSIN

CITY           SKY/WX    TMP DP  RH WIND       PRES   REMARKS
REEDSBURG      MOSUNNY   32  21  64 N17G29    30.33R WCI  21
BARABOO/DELLS  MOSUNNY   33  21  61 N18G25    30.32R WCI  22
LONE ROCK      NOT AVBL
MINERAL POINT  PTSUNNY   36  21  55 N14G28    30.30R WCI  27
MADISON        PTSUNNY   34  22  61 N22G33    30.30R WCI  22
MIDDLETON      MOSUNNY   36  23  60 N16G28    30.29R WCI  26
WATERTOWN      CLOUDY    33  26  76 NW18G30   30.23R WCI  22
MONROE         MOSUNNY   34  23  64 N25G36    30.25R WCI  21
JANESVILLE     PTSUNNY   37  23  56 N20G33    30.23R WCI  27
$$

WIZ051-052-058>065-066-070>072-311600-
SOUTHEAST WISCONSIN

CITY           SKY/WX    TMP DP  RH WIND       PRES   REMARKS
MILWAUKEE      FLURRIES  35  25  66 NW24G38   30.16R WCI  23
WAUKESHA       CLOUDY    34  21  60 N18G37    30.20R WCI  23
MILWAUKEE/TIMM CLOUDY    34  23  64 N22G38    30.18R WCI  22
RACINE         CLOUDY    36  25  64 N24G38    30.16R WCI  24
BURLINGTON     CLOUDY    34  25  69 N22G33    30.18R WCI  22
KENOSHA        CLOUDY    36  26  67 N24G37    30.15R WCI  24
FOND DU LAC    CLOUDY    35  21  56 N29G38    30.27R WCI  22
SHEBOYGAN      CLOUDY    35  23  61 N28G40    30.19R WCI  22
WEST BEND      CLOUDY    32  23  69 N23G32    30.19R WCI  19
JUNEAU         CLOUDY    32  23  68 N23G35    30.24S WCI  20
$$

LSZ147-162-311600-
LAKE SUPERIOR

STATION/POSITION TIME  TEMP    WIND        PRES    WAVE
                       AIR SEA DIR/SP/G            HT/PER
                 (UTC) (F)     (DEG/KT/KT) (MB)    (FT/S)
W MID LAKE BUOY  1350   33 43  360/ 21/ 27 1032.5R   8/ 8
DEVILS ISLAND    1400   32      10/ 22/ 26 1034.5R
PORT WING        1400   33      10/ 20/ 24 1034.2R
SAXON HARBOR     1400   36     360/ 20/ 25 1031.8
$$

LMZ867-665-643>646-311600-
LAKE MICHIGAN

STATION/POSITION TIME  TEMP    WIND        PRES    WAVE
                       AIR SEA DIR/SP/G            HT/PER
                 (UTC) (F)     (DEG/KT/KT) (MB)    (FT/S)
CHAMBERS ISLAND  1400   36     340/ 31/ 37 1024.0R
N MID LAKE BUOY  1350   37 50   10/ 33/ 41 1021.7R   9/ 8
NORTHPORT PIER   1406   36      10/ 28/ 36 1024.0R
SISTER BAY       1328          360/ 32/ 44   N/A
ALGOMA LAKESHORE 1312           10/ 20/ 30   N/A
KEWAUNEE LAKESHO 1400   32      10/ 16/ 26 1021.9R
SHEBOYGAN LAKESH 1400   37 48  350/ 36/ 43 1022.1R
PORT WASHINGTON  1408   36     340/ 14/ 25 1022.0R
ATWATER BUOY     1400   39     340/ 25/ 31 1021.2R
MILWAUKEE LAKESH 1400   36     340/ 20/ 27   N/A
S MID LAKE BUOY  1350   40 52  330/ 37/ 47 1016.2R  12/ 8
KENOSHA   LAKESH 1400   37     340/ 32/ 40 1019.3R
$$

TC  - TEMPERATURE IN CELSIUS
VSB - VISIBILITY IN STATUTE MILES
WCI - WIND CHILL INDEX
HX  - HEAT INDEX




USA.gov is the U.S. government's official web portal to all federal, state and local government web resources and services.